Location: *
(2.5500°S, 65.9667°W)
Time: 18:16:58
(UTC+00:00)

Vanguard 1 Rocket - Visible Passes

Search period start: 23 April 2024 00:00
Search period end: 03 May 2024 00:00
Orbit: 652 x 4219 km, 34.3° (Epoch: 22 April)

Date Brightness Start Highest point End Pass type
(mag) Time Alt. Az. Time Alt. Az. Time Alt. Az.
23 Apr 11.4 04:54:17 24° ESE 04:54:17 24° ESE 05:02:01 10° ESE visible
23 Apr 10.2 07:11:34 68° SSW 07:11:34 68° SSW 07:37:00 10° SE visible
23 Apr 11.1 09:28:51 15° WSW 09:47:07 34° SSW 10:07:39 10° SE visible
24 Apr11.203:47:01ESE03:47:01ESE03:12:23NNWvisible
24 Apr 10.7 06:04:17 49° SE 06:04:17 49° SE 06:20:56 10° SE visible
24 Apr 10.6 08:21:34 38° WSW 08:29:06 44° SSW 08:53:05 10° SE visible
25 Apr 11.4 04:56:55 22° ESE 04:56:55 22° ESE 05:03:37 10° ESE visible
25 Apr 10.4 07:14:11 57° SSW 07:14:11 57° SSW 07:37:53 10° SE visible
25 Apr 11.1 09:31:26 13° WSW 09:49:39 30° SSW 10:09:16 10° SE visible
26 Apr 10.8 06:06:43 44° SE 06:06:43 44° SE 06:21:52 10° SE visible
26 Apr 10.7 08:23:58 33° SW 08:31:10 38° SSW 08:54:14 10° SE visible
27 Apr 11.4 04:59:10 21° ESE 04:59:10 21° ESE 05:04:53 10° ESE visible
27 Apr 10.6 07:16:24 48° SSW 07:16:24 48° SSW 07:38:44 10° SE visible
27 Apr 11.2 09:33:39 11° WSW 09:52:30 27° SSW 10:11:15 10° SE visible
28 Apr 10.9 06:08:47 39° SSE 06:08:47 39° SSE 06:22:40 10° SE visible
28 Apr 10.9 08:26:01 29° SW 08:33:32 33° SSW 08:55:34 10° SE visible
29 Apr 11.5 05:01:05 19° SE 05:01:05 19° SE 05:05:54 10° SE visible
29 Apr 10.7 07:18:18 41° SSW 07:18:18 41° SSW 07:39:38 10° SE visible
29 Apr 11.3 09:36:09 10° WSW 09:55:35 25° S 10:13:39 10° SE visible
30 Apr 11.0 06:10:32 34° SSE 06:10:32 34° SSE 06:23:22 10° SE visible
30 Apr 11.0 08:27:46 25° SW 08:36:13 29° SSW 08:57:12 10° SE visible
01 May 11.5 05:02:44 17° SE 05:02:44 17° SE 05:06:43 10° SE visible
01 May 10.8 07:19:57 35° SSW 07:19:57 35° SSW 07:40:39 10° SE visible
01 May 11.4 09:39:20 10° SW 09:58:47 25° S 10:16:28 10° SE visible
02 May 10.2 00:59:37 10° NNE 00:59:43 10° NNE 00:59:43 10° NNE visible
02 May 11.1 06:12:06 30° SSE 06:12:06 30° SSE 06:24:04 10° SE visible
02 May 11.1 08:29:19 21° SW 08:39:10 27° S 08:59:15 10° SE visible
